Tracking 35331 objects as of 15-Sep-2026
HD Live streaming from Space Station
objects crossing your sky now

CZ-2C DEB

Track CZ-2C DEB now!
10-day predictions


NORAD ID: 37768
Int'l Code: 2011-039D
Launch date: July 29, 2011
Source: People's Republic of China (PRC)
Launch site: Jiuquan Satellite Launch Center, China (JSC)

Note: This is SATELLITE DEBRIS
Your satellite tracking list
Your tracking list is empty




NASA's NSSDC Master Catalog

Two Line Element Set (TLE):
1 37768U 11039D   26257.31859550  .00002268  00000-0  60576-3 0  9998
2 37768  98.3694 206.0271 0120360 326.3192 188.9464 14.45133338790144
Source of the keplerian elements: AFSPC